STARLINK-1499 (45762 NORAD) Tracking and Keplerian Element Data

This shows tracking and keplerian element data for the satellite.

Feedback or suggestion? Click here.




ElementValue
Catalog45762
NameSTARLINK-1499
Epoch Orbit182
Epoch Day191.91670139
Epoch Year2020
RAAN166.1374
Inclination53.0014
Eccentricity0.0001087
Argument of Perigee89.9939
Mean Anonmoly30.2106
Mean Motion15.62764784
Decay Rate0.00028953
L11 45762U 20038AJ 20191.91670139 .00028953 00000-0 32075-3 0 9993
L22 45762 53.0014 166.1374 0001087 89.9939 30.2106 15.62764784 1823

Live tracking and technical data element details for STARLINK-1499 (NORAD 45762). STARLINK-1499 can be tracked NOW for your location showing map with azimuth and elevation plus other details from your city location.

Track the satellite on the map from your city or location and see movement details for azimuth, elevation, latitude, longitude, range, height, and movement on the map or in text.







IsCatalogInMostPopularTable: catalog: 45762, numindb: 11
Update: records affected: 1



GetName: 45762 STARLINK-1499

Hit Count: updated at: Fri, 10 Jul 2020 14:51:29 GMT